EHI
0 0 0 0 0 0 0 0 0 0 0 0 0 1 3 4 4 5 6 8 9 6 2 1 1 1 1 0 1 2 1 0 0 1 4 5 4 3 2 1 0 0 0 0
0 0 0 0 0 0 0 0 0 0 0 0 0 1 3 4 3 3 4 5 5 4 1 0 0 0 0 0 1 2 1 0 0 0 1 2 2 1 1 0 0 0 0 0
0 0 0 0 0 0 0 0 0 0 0 0 0 0 2 2 2 2 2 1 1 1 0 0 0 0 0 0 0 1 1 0 0 0 0 0 0 0 0 0 0 0 0 0
0 0 0 0 0 0 0 0 0 0 0 0 0 0 0 1 1 1 1 1 0 0 0 0 0 0 0 0 0 0 0 0 0 0 0 0 0 0 0 0 0 0 0 0
0 0 0 0 0 0 0 0 0 0 0 0 0 0 0 0 0 0 0 1 0 0 0 0 0 0 0 0 0 0 0 0 0 0 0 0 0 0 0 0 0 0 0 0
0 0 0 0 0 0 0 0 0 0 0 0 0 0 0 0 0 0 0 0 0 0 0 0 0 0 0 0 0 0 0 0 0 0 0 0 0 0 0 0 0 0 0 0
0 0 0 0 0 0 0 0 0 0 0 0 0 0 0 0 0 0 0 0 0 0 0 0 0 0 0 0 0 0 0 0 0 0 0 0 0 0 0 0 0 0 0 0
0 0 0 0 0 0 0 0 0 0 0 0 0 0 0 0 0 0 0 0 0 0 0 0 0 0 0 0 0 0 0 0 0 0 0 0 0 0 0 0 0 0 0 0
0 0 0 0 0 0 0 0 0 0 0 0 0 0 0 0 0 0 0 0 0 0 0 0 0 0 0 0 0 0 0 0 0 0 0 0 0 0 0 0 0 0 0 0
0 0 0 0 0 0 0 0 0 0 0 0 0 0 0 0 0 0 0 0 0 0 0 0 0 0 0 0 0 0 0 0 0 0 0 0 0 0 0 0 0 0 0 0
0 0 0 0 0 0 0 0 0 0 0 0 0 0 0 0 0 0 0 0 0 0 0 0 0 0 0 0 0 0 0 0 0 0 0 0 0 0 0 0 0 0 0 0
0 0 0 0 0 0 0 0 0 0 0 0 0 0 0 0 0 0 0 0 0 0 0 0 0 0 0 0 0 0 0 0 0 0 0 0 0 0 0 0 0 0 0 0
0 0 0 0 0 0 0 0 0 0 0 0 0 0 0 0 0 0 0 0 0 0 0 0 0 0 0 0 0 0 0 0 0 0 0 0 0 0 0 0 0 0 0 0
0 0 0 0 0 0 0 0 0 0 0 0 0 0 0 0 0 0 0 0 0 0 0 0 0 0 0 0 0 0 0 0 0 0 0 0 0 0 0 0 0 0 0 0
0 0 0 0 0 0 0 0 0 0 0 0 0 0 0 0 0 0 0 0 0 0 0 0 0 0 0 0 0 0 0 0 0 0 0 0 0 0 0 0 0 0 0 0
0 0 0 0 0 0 0 0 0 0 0 0 0 0 0 0 0 0 0 0 0 0 0 0 0 0 0 0 0 0 0 0 0 0 0 0 0 0 0 0 0 0 0 0
0 0 0 0 0 0 0 0 0 0 0 0 0 0 0 0 0 0 0 0 0 0 0 0 0 0 0 0 0 0 0 0 0 0 0 0 0 0 0 0 0 0 0 0
0 0 0 0 0 0 0 0 0 0 0 0 0 0 0 0 0 0 0 0 0 0 0 0 0 0 0 0 0 0 0 0 0 0 0 0 0 0 0 0 0 0 0 0
0 0 0 0 0 0 0 0 0 0 0 0 0 0 0 0 0 0 0 0 0 0 0 0 0 0 0 0 0 0 0 0 0 0 0 0 0 0 0 0 0 0 0 0
0 0 0 0 0 0 0 0 0 0 0 0 0 0 0 0 0 0 0 0 0 0 0 0 0 0 0 0 0 0 0 0 0 0 0 0 0 0 0 0 0 0 0 0
0 0 0 0 0 0 0 0 0 0 0 0 0 0 0 0 0 0 0 0 0 0 0 0 0 0 0 0 0 0 0 0 0 0 0 0 0 0 0 0 0 0 0 0
0 0 0 0 0 0 0 0 0 0 0 0 0 0 0 0 0 0 0 0 0 0 0 0 0 0 0 0 0 0 0 0 0 0 0 0 0 0 0 0 0 0 0 0
0 0 0 0 0 0 0 0 0 0 0 0 0 0 0 0 0 0 0 0 0 0 0 0 0 0 0 0 0 0 0 0 0 0 0 0 0 0 0 0 0 0 0 0
0 0 0 0 0 0 0 0 0 0 0 0 0 0 0 0 0 0 0 0 0 0 0 0 0 0 0 0 0 0 0 0 0 0 0 0 0 0 0 0 0 0 0 0
0 0 0 0 0 0 0 0 0 0 0 0 0 0 0 0 0 0 0 0 0 0 0 0 0 0 0 0 0 0 0 0 0 0 0 0 0 0 0 0 0 0 0 0
0 0 0 0 0 0 0 0 0 0 0 0 0 0 0 0 0 0 0 0 0 0 0 0 0 0 0 0 0 0 0 0 0 0 0 0 0 0 0 0 0 0 0 0
Wind_Speed
3 4 2 6 7 6 2 1 2 1 3 8 10 10 9 9 10 10 9 8 8 7 6 6 6 4 4 3 2 2 2 2 2 1 1 2 1 2 2 2 2 2 2 3
5 2 6 4 3 4 3 1 1 2 5 6 7 9 7 9 8 7 7 7 6 5 5 6 5 5 5 4 3 3 3 3 3 1 1 1 1 1 1 2 2 2 2 3
3 5 3 2 1 1 2 3 3 3 3 4 5 4 4 5 5 6 6 5 5 5 5 5 5 4 3 3 2 2 2 2 2 2 1 1 1 1 2 2 3 3 3 4
3 3 2 2 0 1 1 2 2 4 4 1 1 1 1 1 3 4 4 3 3 3 2 2 3 2 2 1 0 2 1 1 1 2 2 2 1 1 2 2 2 3 3 3
4 3 2 2 2 1 1 3 4 3 4 3 4 3 3 1 1 2 2 1 1 2 1 2 3 3 3 2 1 0 0 0 0 1 2 2 1 0 1 1 2 3 3 3
4 3 2 2 2 1 2 5 5 5 5 3 2 1 3 3 3 3 3 2 2 3 3 3 4 4 4 4 3 2 2 2 2 1 2 3 3 2 1 1 1 2 2 2
8 6 4 2 3 4 6 6 5 6 5 3 2 1 4 2 2 3 3 3 3 3 3 4 5 5 6 6 5 4 4 4 4 3 3 3 4 3 3 2 1 1 1 1
3 7 6 4 2 1 2 6 6 3 3 4 2 1 3 1 1 1 1 1 3 4 4 6 6 7 7 7 7 6 6 6 5 5 5 4 5 3 3 4 3 3 3 3
1 5 4 4 4 2 3 3 3 6 1 1 3 3 4 1 2 2 1 1 3 4 5 6 7 7 7 7 7 7 7 7 7 7 6 6 6 5 5 5 4 4 4 4
2 3 5 5 6 8 5 5 4 4 2 2 4 3 4 6 5 3 2 2 3 4 5 6 6 6 6 6 6 7 7 8 8 8 7 7 7 7 6 5 6 6 6 5
3 2 6 6 6 6 5 5 5 4 3 3 2 3 3 4 3 2 2 3 4 5 5 6 5 5 6 6 7 7 8 8 9 9 9 8 8 8 7 7 8 7 7 6
3 5 2 3 3 2 3 3 3 3 1 2 1 4 3 2 2 2 2 4 5 5 6 6 6 6 6 7 8 8 8 9 10 10 9 9 9 8 8 9 10 9 8 8
4 6 4 7 8 7 6 4 4 5 4 2 0 5 1 2 3 2 4 6 6 7 7 6 6 7 8 9 9 9 9 10 10 9 9 10 10 10 10 11 11 9 9 9
6 5 4 3 4 1 3 4 3 4 3 1 4 7 3 3 4 6 7 8 8 8 8 7 8 9 9 9 9 10 11 10 10 10 10 10 12 12 12 11 10 10 10 9
6 5 1 0 1 3 3 3 3 3 2 4 6 6 6 4 5 7 7 8 9 9 9 10 10 10 10 10 10 9 10 10 10 10 10 12 12 11 10 10 10 10 10 11
5 5 2 2 3 4 3 3 2 1 1 4 5 6 5 5 5 7 9 10 9 10 10 10 10 10 10 10 10 9 10 10 9 9 11 11 11 11 11 11 11 10 10 10
3 4 3 2 1 1 2 2 1 3 4 4 6 6 5 7 7 8 9 9 10 11 11 10 10 10 10 10 10 10 11 10 9 10 11 11 10 11 11 12 10 9 10 9
6 5 3 2 2 3 5 3 3 4 6 5 6 6 7 9 8 8 9 9 10 10 10 10 10 10 10 10 10 10 11 11 11 11 12 11 11 11 11 10 10 10 8 8
4 7 4 3 1 4 3 2 2 3 7 5 5 7 7 7 7 7 7 6 8 9 10 10 10 11 10 11 11 11 11 11 12 12 12 11 11 11 11 11 10 9 8 8
6 5 6 3 1 4 6 2 1 1 6 4 4 7 7 5 6 7 6 7 9 9 9 10 10 11 11 12 11 11 12 12 13 13 12 12 11 11 12 11 10 9 8 9
3 4 3 3 3 7 5 1 2 0 7 3 4 6 5 5 8 9 9 9 8 10 11 11 11 11 11 12 11 12 13 13 13 13 13 12 11 11 11 11 10 9 8 8
5 3 3 3 2 7 3 3 4 8 4 3 4 5 6 8 9 8 9 9 10 11 11 11 11 12 12 11 11 13 13 13 13 13 13 12 11 10 10 8 8 8 8 8
5 7 6 8 7 5 3 5 4 4 3 4 4 5 5 6 7 8 8 9 10 11 11 11 12 13 12 11 10 13 14 13 13 13 12 12 11 9 8 8 8 7 6 6
2 3 3 3 6 5 4 3 2 3 4 4 4 5 4 6 7 9 8 9 10 10 12 11 12 13 14 13 12 12 13 12 13 13 12 10 9 8 8 6 6 5 5 5
5 5 3 4 5 3 5 6 4 3 3 4 4 3 4 5 7 7 8 10 10 10 10 10 12 13 15 14 14 13 12 12 12 12 10 9 8 7 7 5 5 5 5 5
6 8 8 7 7 6 6 5 4 4 4 4 4 4 5 4 6 7 8 8 10 11 12 12 13 14 14 14 14 13 12 12 11 10 9 7 6 6 5 5 4 4 4 5
Wind_Direction
36 59 279 247 210 213 229 253 294 270 126 75 79 69 39 31 49 59 62 69 74 71 62 60 56 62 74 61 41 21 359 339 337 305 275 274 305 320 329 302 305 285 248 229
26 311 259 260 211 193 200 220 217 96 105 104 96 74 49 37 39 43 51 50 56 57 47 43 43 41 46 45 36 35 21 349 347 333 296 278 253 274 279 305 306 273 258 245
205 251 292 329 68 126 188 186 201 163 101 94 111 58 34 37 36 42 46 47 48 54 41 23 27 36 40 41 39 56 36 17 356 345 344 349 352 344 355 335 320 307 284 257
272 280 330 349 35 101 286 254 207 157 131 144 133 156 288 19 12 21 20 26 29 34 34 7 351 350 355 324 213 91 67 40 13 25 65 63 50 3 335 322 318 315 313 299
296 314 328 312 272 208 223 53 68 89 119 79 35 106 277 245 271 268 283 304 330 326 331 309 299 295 298 290 277 156 117 71 26 91 110 103 98 211 283 320 351 348 344 341
270 293 260 269 313 349 106 73 54 51 68 54 330 120 256 231 222 211 228 251 272 293 304 304 297 292 291 285 280 270 252 247 238 194 171 159 164 179 166 19 7 350 333 334
339 334 332 332 359 15 60 73 27 4 10 274 301 138 251 248 200 184 207 235 251 267 278 283 279 278 276 274 270 263 256 255 248 233 222 207 200 200 200 210 216 248 287 293
359 322 332 357 8 326 59 120 145 201 237 286 350 286 274 300 117 108 140 250 258 261 262 265 268 269 271 273 270 264 260 262 258 247 242 235 224 215 219 221 218 223 229 245
270 287 322 5 8 71 72 67 131 127 119 333 312 309 331 55 31 33 13 273 267 268 268 269 271 272 272 274 273 269 266 265 263 257 253 252 243 231 228 229 227 231 236 245
164 285 320 328 27 28 79 124 79 88 108 318 319 332 323 335 342 354 4 336 301 295 290 284 282 281 278 273 271 270 260 259 263 262 257 255 248 244 240 235 235 235 237 238
107 90 334 21 34 349 11 48 82 91 124 142 293 299 339 317 334 4 1 336 317 305 297 291 290 289 285 282 278 274 271 267 267 263 258 256 254 249 243 240 241 238 236 230
96 102 15 327 315 338 62 56 108 109 72 123 190 271 333 22 43 49 355 318 306 297 289 288 291 295 291 285 280 274 269 264 261 260 259 258 258 254 245 242 243 237 235 234
110 84 41 355 348 5 34 38 81 101 98 110 219 272 337 19 11 339 310 300 297 296 293 296 296 293 288 283 280 276 271 266 266 264 261 262 262 258 252 248 245 239 234 235
99 84 130 185 251 305 29 24 57 86 93 261 241 261 281 316 311 304 299 293 293 293 290 290 289 287 285 284 283 281 280 277 276 273 268 265 262 257 254 251 247 242 236 233
86 88 73 21 15 101 79 56 66 92 162 211 259 262 260 261 275 281 285 291 294 294 292 290 288 288 287 287 286 284 283 283 282 279 275 269 266 263 260 256 252 246 237 235
70 109 93 44 65 86 71 34 51 67 258 256 270 272 254 275 286 284 285 287 289 288 289 290 291 292 290 288 288 287 285 284 283 280 278 277 274 271 267 262 257 252 245 238
85 116 114 216 269 14 282 235 235 253 242 234 247 258 290 295 286 278 281 288 287 287 290 293 292 288 288 287 287 287 285 285 282 280 280 278 276 275 273 271 265 254 248 243
123 103 113 118 69 257 251 231 221 242 248 227 238 263 276 268 274 276 276 277 282 287 291 292 290 289 287 287 288 287 288 287 285 285 283 282 280 277 273 269 266 261 255 245
124 127 112 109 213 286 268 235 214 242 270 221 237 267 277 292 315 291 275 275 278 285 287 286 287 289 291 292 292 294 294 292 290 289 286 283 280 279 276 270 266 263 257 252
60 84 107 119 182 255 249 239 282 167 286 231 236 271 286 319 320 288 291 304 298 295 291 291 292 295 296 295 296 297 297 295 293 290 287 283 277 274 272 268 265 261 254 251
39 46 93 151 229 264 250 257 71 196 268 251 244 267 281 262 246 272 299 299 290 289 293 295 297 299 298 299 300 300 299 297 295 294 290 286 279 272 268 265 261 257 251 248
173 157 179 152 214 268 217 146 185 225 247 265 267 270 271 268 275 288 295 294 298 299 299 300 302 303 302 302 302 303 303 302 300 297 294 290 283 277 277 264 261 256 247 242
190 189 187 186 212 238 220 208 217 190 227 257 260 273 280 282 286 292 291 293 297 299 302 304 305 307 308 307 305 305 306 307 305 302 299 296 291 282 276 270 266 260 243 234
244 143 147 236 259 239 230 233 233 208 228 257 268 279 279 280 286 293 293 296 301 303 308 308 311 314 315 315 312 307 307 309 308 306 305 303 299 293 286 272 262 255 242 226
227 168 178 245 266 263 253 234 229 237 252 274 286 278 277 281 288 289 295 301 305 308 308 310 315 316 316 317 315 314 313 313 313 310 308 309 303 299 296 285 266 256 243 229
199 177 175 218 215 194 235 229 205 218 246 265 278 290 293 282 283 291 297 299 305 310 314 317 319 318 318 317 316 316 317 317 316 315 315 313 309 305 301 298 295 267 251 249